Regional Weather Roundup
Issued by NWS Sterling, VA

Home | Current Version | Previous Version | Text Only | Print | Product List | Glossary Off
Versions: 1 2 3 4 5 6 7 8 9 10 11 12 13 14 15 16 17 18 19 20 21 22 23 24 25 26 27

000
ASUS41 KLWX 261511
RWRLWX

REGIONAL WEATHER ROUNDUP
NATIONAL WEATHER SERVICE BALTIMORE MD/WASHINGTON DC
1100 AM EDT MON JUN 26 2017

Note: "FAIR" indicates few or no clouds below 12,000 feet
with no significant weather and/or obstructions to visibility.
 TC=TEMPERATURE CELSIUS

 * =Non NWS site. Station does not report precipitation (e.g. rain,
    snow, etc.), thunder, or fog.

DCZ001-MDZ009-015-VAZ040>042-051-053>054-261600-
WASHINGTON METRO

CITY           SKY/WX    TMP DP  RH WIND       PRES   REMARKS
WASHINGTON NAT MOSUNNY   79  41  25 W13G22    30.10R
DULLES         MOSUNNY   76  42  29 W7        30.10S
ANDREWS AFB    SUNNY     78  42  27 NW12G20   30.09R
FT BELVOIR     SUNNY     80  42  26 NW15G21   30.09S
QUANTICO       MOSUNNY   81  48  31 NW7       30.10S
COLLEGE PARK*  SUNNY     76  41  27 NW6       30.09S
LEESBURG*      SUNNY     77  48  36 W10G17    30.11S
MANASSAS*      SUNNY     79  49  34 NW10G16   30.10F HAZE
GAITHERSBURG*  SUNNY     75  47  36 NW7G16    30.11S

$$

MDZ006>007-011-014-261600-
BALTIMORE METRO

CITY           SKY/WX    TMP DP  RH WIND       PRES   REMARKS
BWI AIRPORT    MOSUNNY   78  45  30 W9        30.08S
MD SCIENCE CTR   N/A     79  45  29 MISG      30.09R
MARTIN STATE   MOSUNNY   73  45  35 W12       30.09S
ANNAPOLIS      SUNNY     75  48  38 NW10      30.08R
FORT MEADE*    SUNNY     75  45  33 W6        30.11S

$$

MDZ012-015-019>023-261600-
MARYLAND EASTERN SHORE

CITY           SKY/WX    TMP DP  RH WIND       PRES   REMARKS
OCEAN CITY     SUNNY     76  60  57 E8        30.09R
SALISBURY      SUNNY     78  53  41 VRB7      30.09R
BAY BRIDGE AP* SUNNY     79  48  34 W14G20    30.08S
CAMBRIDGE*     SUNNY     79  50  36 NW5G12    30.09S
EASTON*        SUNNY     79  46  31 N9G17     30.12R

$$

MDZ017>025-261600-
SOUTHERN MARYLAND

CITY           SKY/WX    TMP DP  RH WIND       PRES   REMARKS
PATUXENT RIVER MOSUNNY   79  47  32 NW9       30.10R
ST INIGOES     SUNNY     79  51  37 NW6       30.09S
LEONARDTOWN*   SUNNY     77  46  33 W5        30.11S

$$

MDZ003>005-261600-
NORTH CENTRAL MARYLAND

CITY           SKY/WX    TMP DP  RH WIND       PRES   REMARKS
FREDERICK*     SUNNY     77  39  25 NW9       30.12S
HAGERSTOWN APT SUNNY     74  46  36 NW13      30.10S
WESTMINSTER*   SUNNY     73  48  40 W8        30.10S

$$

MDZ501>502-261600-
WESTERN MARYLAND

CITY           SKY/WX    TMP DP  RH WIND       PRES   REMARKS
OAKLAND*       NOT AVBL
CUMBERLAND*    SUNNY     72  52  49 S3        30.13F

$$

VAZ025>031-261600-
SHENANDOAH VALLEY

CITY           SKY/WX    TMP DP  RH WIND       PRES   REMARKS
WINCHESTER*    PTSUNNY   72  43  35 W5        30.10F
FRONT ROYAL*   MOSUNNY   73  46  38 SW5       30.10F
LURAY*         MOSUNNY   72  50  46 SW6       30.12F
NEW MARKET*    PTSUNNY   73  44  36 W5        30.11F
STAUNTON*      MOSUNNY   72  49  43 SW8       30.14F
WAYNESBORO*    SUNNY     71  49  44 CALM      30.14S

$$

WVZ021-048>050-054>055-261600-
EASTERN WEST VIRGINIA PANHANDLE

CITY           SKY/WX    TMP DP  RH WIND       PRES   REMARKS
MARTINSBURG    SUNNY     74  46  36 MISG      30.09S
PETERSBURG*    PTSUNNY   75  49  40 W5        30.11F

$$

VAZ036>039-050-261600-
CENTRAL FOOTHILLS

CITY           SKY/WX    TMP DP  RH WIND       PRES   REMARKS
CHARLOTTESVILL MOSUNNY   78  48  34 NW8       30.11F
CULPEPER*      SUNNY     76  50  39 NW3       30.11F
ORANGE*        SUNNY     75  45  33 W8        30.11S
GORDONSVILLE*  SUNNY     77  45  32 NW8       30.10F
WARRENTON*     SUNNY     79  37  22 W5        30.10F

$$

VAZ055>057-261600-
NORTH AND CENTRAL PIEDMONT

CITY           SKY/WX    TMP DP  RH WIND       PRES   REMARKS
FREDERICKSBRG* SUNNY     78  52  40 N5        30.09F
STAFFORD*      SUNNY     78  47  34 NW6       30.14S

$$

NCZ024-NYZ072-PAZ021-071-VAZ022-071-261600-
OTHER REGIONAL OBSERVATIONS

CITY           SKY/WX    TMP DP  RH WIND       PRES   REMARKS
NEW YORK CITY  SUNNY     73  49  42 VRB3      30.06F
PITTSBURGH     MOSUNNY   69  49  48 W14       30.07F
ROANOKE        MOSUNNY   74  49  41 NW6G18    30.16F
RICHMOND       MOSUNNY   78  54  43 N5        30.11S
RALEIGH        MOSUNNY   79  52  38 N6        30.14S

$$

ANZ530>537-261600-
MARINE OBSERVATIONS

STATION/POSITION TIME  TEMP    WIND        PRES
                       AIR SEA DIR/SP/G
                 (UTC) (F)     (DEG/KT/KT) (MB)
THOMAS PT LIGHT  1500   75 78  300/ 16/ 19   N/A
BALT KEY BRIDGE  1448   74     290/ 12/ 13 1018.3R
COVE POINT       1448   75      20/  5/  7 1019.7R
LEWISETTA        1448   75 80  330/  5/  7 1019.1R
SOLOMONS ISLAND  1448   76 78  320/  6/  9   N/A
PINEY POINT      1448          310/  6/  7   N/A

$$





USA.gov is the U.S. government's official web portal to all federal, state and local government web resources and services.